Погода в Калоокане

Филиппины     14°39′04″N   120°58′20″E
темп.,
°C
ветер,
м/с
пор.,
м/с
влажн.,
%
обл.,
%
осадки,
мм/ч
давл.,
гПа
погр.,
м
29 ноября, пн
пн2923:00+24ссв1293100 0.0 101169
02:00+24ссв1292100 0.0 101062
05:00+24в119125 0.0 100937
08:00+26с1181100 0.0 1011279
11:00+31ююз236250 0.0 10101108
14:00+30юз226568 1.2 1007837
17:00+29сз117214 1.8 1008106
20:00+27ссв128076 2.0 101099
30 ноября, вт
вт3023:00+26в228190 0.0 101088
02:00+25ссв228479 0.0 100986
05:00+24всв1183100 0.0 100950
08:00+27в0174100 0.0 1011266
11:00+30з2159100 0.0 1010951
14:00+31зюз225595 0.0 10071094
17:00+30ссв126433 0.4 1007497
20:00+27св2482100 1.8 1009106
1 декабря, ср
ср123:00+25св228487 0.3 101095
02:00+25всв1284100 0.4 100978
05:00+24ссв1185100 0.0 100957
08:00+26св117777 0.0 1011282
11:00+30ююз1261100 0.0 10101163
14:00+31всв235280 0.2 10071510
17:00+28всв46630 0.1 1008450
20:00+26в276921 0.1 1011517
2 декабря, чт
чт223:00+25ссв12725 0.0 1011277
02:00+24с237510 0.0 1010173
05:00+24ссв227719 0.0 1010102
08:00+26ссв366810 0.0 1012765
11:00+30св46507 0.0 10121510
14:00+30всв56494 0.0 10091523
17:00+27всв35613 0.0 1010641
20:00+25всв23714 0.0 1013258
3 декабря, пт
пт323:00+25в24742 0.0 1012272
02:00+24св1278100 0.0 1011113
05:00+23с1281100 0.0 1011103
08:00+25ссв127293 0.0 1013380
11:00+29всв025241 0.0 10131262
14:00+30юв125083 0.0 10101598
17:00+27всв345739 0.0 1011540
20:00+25всв4970100 0.0 1013435